Probability
0 1 1 0 0 0 0 0 1 3 4 4 3 1 0 0 0 0 0 0 0 0 0 0 0 0 0 0 0 0 0 0 0 0 0 0 0 0 0 0 0 0 0
1 2 1 0 0 0 0 1 3 5 7 6 4 1 0 0 0 0 0 0 0 0 0 0 0 0 0 0 0 0 0 0 0 0 0 0 0 0 0 0 0 0 0
2 2 1 0 0 0 0 1 4 8 9 8 5 2 0 0 0 0 0 0 0 0 0 0 0 0 0 0 0 0 0 0 0 0 0 0 0 0 0 0 0 0 0
3 2 0 0 0 0 0 1 4 8 10 9 6 2 0 0 0 0 0 0 0 0 0 0 0 0 0 0 0 0 0 0 0 0 0 0 0 0 0 0 0 0 0
4 2 1 0 0 0 0 0 2 6 8 9 7 3 1 0 0 0 0 0 0 0 0 0 0 0 0 0 0 0 0 0 0 0 0 0 0 0 0 0 0 0 0
2 2 3 2 0 0 0 0 1 4 6 9 9 6 3 1 0 0 0 0 0 0 0 0 0 0 0 0 0 0 0 0 0 0 0 0 0 0 0 0 0 0 0
1 2 4 3 1 0 0 0 1 3 5 7 8 6 3 1 0 0 0 0 0 0 0 0 0 0 0 0 0 0 0 0 0 0 0 0 0 0 0 0 0 0 0
0 2 5 4 2 1 1 1 3 5 6 6 5 4 2 1 1 0 0 0 0 0 0 0 0 0 0 0 0 0 0 0 0 0 0 0 0 0 0 0 0 0 0
1 2 5 5 4 3 3 3 5 8 9 8 6 4 3 2 2 1 1 1 0 0 0 0 0 0 0 0 0 0 0 0 0 1 1 2 2 1 0 0 0 0 0
5 4 5 7 7 6 5 7 9 12 14 14 11 8 5 4 3 3 3 3 2 0 0 0 0 0 0 0 0 0 0 0 0 1 2 4 5 2 0 0 0 0 0
15 11 10 12 12 9 10 12 13 14 17 18 18 17 14 10 8 7 9 12 9 4 2 1 0 0 0 0 0 0 0 0 0 0 4 11 11 4 0 0 0 0 0
27 23 21 21 20 17 18 19 19 22 26 28 29 33 31 26 23 20 22 25 19 11 6 3 1 1 2 3 3 2 1 0 0 0 9 22 19 5 0 0 1 1 1
41 37 35 36 33 29 29 29 30 35 41 42 44 50 51 47 42 39 37 34 28 21 14 11 8 6 6 7 6 3 1 1 2 3 15 29 22 5 1 1 1 2 3
53 48 46 48 47 43 41 41 42 45 49 51 55 58 60 60 57 55 51 43 36 32 28 23 19 15 12 10 7 5 3 3 3 6 19 29 20 6 2 1 2 4 5
60 54 49 49 52 55 58 55 50 51 53 55 56 57 59 63 64 63 62 54 45 41 37 32 26 22 19 15 9 7 6 5 4 7 15 23 19 8 3 3 4 6 6
63 58 52 50 55 63 69 65 56 54 57 57 54 54 56 61 63 63 63 59 52 47 44 38 30 25 23 19 13 9 9 8 7 7 10 15 15 9 4 5 7 6 6
64 62 57 55 58 63 67 66 61 56 55 55 53 52 53 56 59 59 58 56 54 52 50 44 35 30 26 21 15 11 12 12 10 8 8 11 12 8 5 5 7 8 10
65 64 59 54 55 58 60 61 59 54 49 48 50 49 48 49 52 53 51 49 50 50 49 43 37 34 31 24 17 14 14 13 10 7 6 9 11 11 9 7 6 9 12
60 58 53 48 49 50 49 48 46 42 38 38 39 40 40 39 41 43 41 38 39 42 42 39 37 37 34 24 15 12 10 9 6 3 2 4 9 14 16 12 8 8 10
47 47 44 41 41 39 36 33 30 28 27 27 27 28 27 26 27 30 29 28 28 30 34 35 34 33 30 21 10 6 5 5 4 2 1 2 5 10 14 14 11 9 9
32 33 32 31 31 30 27 24 23 23 23 21 19 18 17 16 16 19 20 19 19 20 24 27 27 24 21 16 9 4 4 4 5 4 2 2 3 6 9 11 13 13 13
20 21 21 21 21 20 21 20 20 20 20 18 15 14 13 10 11 13 15 14 15 15 16 19 21 18 14 11 7 5 3 3 4 3 2 3 4 6 7 8 11 15 15
11 12 13 13 12 11 12 13 13 14 14 13 13 13 11 8 7 9 11 13 13 14 14 16 16 15 12 8 6 5 3 2 1 1 1 2 4 5 5 5 6 9 10
4 6 9 10 9 7 5 6 6 6 6 7 8 9 9 6 5 6 8 10 12 14 17 16 13 13 12 9 8 7 5 2 0 0 0 0 2 3 3 2 2 3 3
0 2 5 7 7 5 4 3 3 3 3 3 3 4 6 6 5 4 5 7 10 17 21 19 17 17 15 12 12 10 8 5 1 0 0 0 1 2 2 1 0 0 0
0 1 4 6 6 6 4 3 3 2 1 2 2 2 5 6 5 3 4 5 10 17 21 22 23 22 19 16 15 14 11 7 2 0 0 0 0 1 2 1 0 0 0
Wind_Speed
14 18 21 17 15 14 13 13 13 13 14 14 14 14 13 13 12 11 10 9 9 8 8 8 8 8 9 9 9 10 10 10 10 10 10 10 10 9 10 9 8 12 12
17 20 21 17 16 15 14 13 13 13 13 14 14 13 13 12 12 11 10 9 8 8 8 8 8 8 9 9 10 10 10 9 9 10 10 11 10 8 8 5 5 11 11
19 20 20 17 16 15 14 13 13 13 13 13 13 13 12 12 11 11 10 9 8 8 7 7 8 8 8 9 9 9 9 8 8 8 9 9 11 8 7 6 10 11 10
19 19 18 19 17 16 15 14 14 13 13 13 13 12 12 11 11 10 9 8 8 7 7 7 7 8 8 8 8 8 8 7 7 7 7 7 9 10 7 7 9 9 9
17 17 18 19 17 16 15 14 13 13 13 13 12 12 11 11 10 10 9 8 8 7 7 7 7 7 7 7 7 7 7 6 6 10 4 5 7 10 7 7 8 9 9
17 17 19 19 17 16 15 15 14 13 13 12 12 11 11 10 10 9 9 8 8 7 7 7 7 7 7 7 7 7 7 7 9 7 5 5 7 9 7 8 8 8 9
16 16 19 18 17 16 15 14 14 13 12 11 11 10 10 9 9 9 8 8 8 7 7 7 7 7 7 7 7 7 7 7 10 4 5 4 6 9 7 8 8 9 9
15 15 18 17 16 15 14 14 13 12 12 11 11 10 10 9 9 8 8 8 8 8 8 7 7 8 8 8 8 8 8 9 10 7 7 6 8 8 8 9 9 10 10
14 13 15 16 15 15 13 13 13 12 11 11 10 10 10 9 9 9 9 9 9 9 9 9 9 9 9 9 9 9 9 10 12 7 7 6 11 9 9 10 11 11 12
12 12 13 13 13 13 13 14 12 12 11 11 10 10 10 10 10 10 10 11 11 10 10 10 11 11 11 11 11 11 11 10 13 10 7 6 12 10 10 11 12 13 12
11 10 11 12 11 11 11 12 13 12 11 11 11 12 11 11 12 11 14 11 12 12 12 12 12 12 12 13 14 13 12 10 13 9 7 9 12 11 11 12 12 14 14
13 12 9 10 10 9 7 8 8 9 10 10 9 10 10 9 7 9 6 9 12 13 13 14 13 13 13 11 14 15 10 13 11 8 6 12 11 12 12 12 12 14 15
12 11 10 9 8 8 6 6 5 5 6 9 10 10 8 7 7 8 6 8 11 13 12 12 13 11 11 8 7 9 10 9 7 7 7 14 12 13 14 13 13 14 15
11 12 10 10 8 7 6 5 6 6 5 6 8 10 8 6 7 7 6 7 7 6 8 8 7 10 10 10 10 10 10 8 7 6 5 13 12 14 15 14 14 14 15
10 10 9 9 9 8 7 5 6 6 6 7 7 8 9 7 7 7 6 6 8 7 7 8 8 8 9 10 10 11 11 11 10 9 5 11 13 14 15 15 15 15 15
7 7 7 8 7 7 7 6 6 6 6 7 7 8 9 8 7 7 7 7 8 7 7 7 9 8 8 8 9 10 11 11 10 10 9 9 14 14 14 14 14 15 14
4 4 4 6 6 6 6 6 5 6 6 6 6 7 8 8 8 7 7 7 7 7 7 7 8 7 8 8 10 11 10 10 10 10 10 7 9 15 15 14 13 13 13
3 2 1 1 2 3 4 4 4 5 5 5 5 5 6 7 7 6 6 7 7 6 6 6 7 7 7 7 7 7 8 8 11 10 10 9 8 8 13 16 13 12 12
4 3 2 2 2 2 3 3 4 3 5 5 5 5 6 7 7 6 6 6 7 6 6 7 5 6 6 6 6 7 8 8 8 9 10 10 9 8 8 10 13 12 13
4 3 2 1 1 2 2 3 3 4 4 4 4 5 7 6 7 7 6 6 7 6 6 6 5 5 5 5 7 7 6 7 7 8 9 9 9 10 10 9 9 11 14
5 4 3 2 2 2 2 3 2 3 3 3 4 5 5 5 5 6 6 6 6 6 6 6 6 6 6 5 6 6 6 8 7 6 7 7 8 8 8 7 7 7 8
5 4 3 2 3 3 2 3 3 3 3 3 3 3 4 4 4 4 5 5 5 5 6 6 6 5 5 5 5 5 5 6 6 6 6 6 7 6 8 9 7 6 7
4 4 3 4 3 3 4 3 2 2 3 2 2 2 3 3 3 3 3 4 4 5 5 5 5 8 6 6 6 6 5 4 4 6 5 5 4 4 6 5 7 7 8
3 3 3 3 3 4 4 4 5 4 4 3 2 2 3 2 3 3 3 3 4 5 4 6 6 6 8 7 6 6 6 4 4 4 6 6 6 5 5 4 5 6 7
1 2 2 2 3 4 4 4 5 4 4 3 2 2 3 2 2 2 3 3 4 4 5 6 5 7 7 8 6 6 6 5 7 5 4 5 6 6 5 5 5 5 5
3 3 4 4 5 5 5 5 5 5 5 5 5 4 3 2 2 2 2 3 4 4 5 5 6 7 7 8 7 6 6 6 7 7 6 6 5 4 4 4 5 4 4
Wind_Direction
157 147 148 158 159 158 154 151 150 152 153 153 153 153 152 151 151 150 148 144 139 135 128 121 118 117 116 115 113 112 112 111 113 115 114 112 113 114 117 131 152 112 109
150 145 150 158 160 160 156 152 149 149 151 153 154 155 154 154 154 153 152 150 146 142 134 127 123 119 116 117 116 117 118 118 121 124 129 126 120 116 119 119 40 104 123
147 144 153 158 161 162 158 155 153 153 154 155 156 157 157 157 157 157 157 156 152 147 140 136 132 127 124 122 122 124 125 126 129 141 177 153 127 127 125 111 98 117 125
147 149 156 156 163 163 160 158 157 157 158 158 159 160 160 161 162 163 162 160 159 155 150 146 142 138 134 132 131 132 134 137 146 184 194 129 133 129 141 135 132 135 133
149 152 149 159 164 165 163 162 162 162 162 163 163 165 166 167 168 168 167 166 166 163 161 158 155 150 146 145 144 145 146 152 174 224 134 130 122 130 154 154 152 150 147
154 155 149 163 165 166 166 166 167 167 166 167 168 170 172 174 177 178 176 176 175 174 173 171 168 163 160 159 160 161 164 174 209 201 151 167 133 140 164 170 172 168 163
158 154 151 165 166 168 170 171 171 172 172 172 173 176 179 182 185 188 187 186 186 186 186 184 182 177 176 175 178 180 184 198 239 190 184 181 127 142 177 186 186 184 180
159 157 148 163 169 171 173 175 175 176 177 179 181 184 188 192 196 199 199 199 199 200 201 201 198 194 193 193 194 197 201 225 227 214 208 195 131 160 193 197 196 195 192
162 159 154 166 172 175 177 180 180 182 185 187 190 193 197 202 207 210 211 212 212 212 212 212 211 209 206 205 207 208 212 228 255 229 218 203 145 179 206 208 204 202 199
165 165 165 170 173 179 181 184 188 190 193 196 199 203 207 213 216 218 222 213 220 223 222 221 221 220 217 215 214 215 217 223 239 235 222 180 150 187 211 216 210 207 204
171 173 176 171 177 187 190 175 189 196 200 205 206 209 216 224 219 209 221 208 218 229 231 230 229 229 227 221 220 219 219 232 229 235 223 149 161 196 217 221 215 209 207
176 179 185 178 182 191 196 178 203 206 199 214 217 210 216 226 238 240 199 208 229 236 238 236 236 235 233 229 212 210 224 228 243 228 209 150 177 206 220 223 220 212 209
177 183 184 185 192 197 197 200 209 217 210 216 222 222 228 233 230 234 225 208 221 229 234 226 225 230 230 233 234 216 230 233 229 233 201 164 190 212 221 222 220 216 212
180 185 185 185 190 205 216 214 224 228 224 230 221 227 225 226 235 237 237 238 229 227 229 238 234 232 236 237 236 238 236 235 236 233 200 173 196 214 221 222 221 219 216
178 184 187 192 193 199 212 231 236 244 246 242 242 231 235 236 236 237 239 244 246 244 236 235 241 243 240 239 239 234 238 239 241 235 214 184 202 215 221 223 222 221 219
177 183 190 202 204 212 217 224 243 252 253 259 252 249 243 243 241 242 241 242 246 247 249 248 246 244 244 243 244 244 242 240 239 238 238 204 202 212 220 224 223 222 220
162 164 191 211 218 227 238 241 251 261 261 263 265 259 253 253 249 246 248 244 244 245 245 247 253 251 245 240 240 241 239 240 239 237 241 241 215 205 212 220 224 224 223
106 126 179 241 249 250 255 260 259 266 274 271 271 265 258 260 258 258 256 250 245 242 240 241 245 245 247 248 246 245 239 232 236 234 233 231 239 232 206 208 217 221 224
60 53 43 10 339 306 278 261 265 270 267 269 268 267 262 255 254 253 256 256 248 243 241 244 234 246 245 248 248 239 240 237 235 236 237 235 230 236 238 192 201 214 221
58 50 36 40 6 320 286 260 257 256 261 270 279 280 275 261 255 251 248 248 251 246 241 238 241 239 254 253 258 252 243 241 236 235 237 234 228 228 230 226 208 206 209
63 61 53 30 18 336 308 295 289 279 273 273 270 278 275 272 268 256 255 241 244 245 244 236 234 229 236 239 249 249 238 233 233 237 235 241 227 224 228 225 232 233 200
63 50 41 27 16 335 333 305 292 298 291 296 311 317 316 309 292 264 258 253 238 237 232 234 232 243 233 217 239 248 233 204 209 220 218 222 231 220 219 218 225 227 246
60 40 25 9 355 338 324 308 304 278 271 292 316 317 326 320 315 307 282 272 259 249 238 236 229 231 236 221 226 247 252 231 181 182 208 215 214 226 226 219 223 225 234
54 42 25 359 344 335 319 328 327 322 324 334 312 315 304 301 310 308 297 289 279 270 263 247 228 232 237 233 211 233 266 315 268 190 189 194 200 217 233 240 234 223 230
6 353 343 328 321 323 320 316 306 316 321 319 308 297 289 296 298 308 303 292 282 276 269 266 255 238 235 241 233 215 217 218 244 266 222 190 199 208 210 226 237 238 230
301 303 305 304 301 300 298 301 298 303 303 305 298 297 287 287 290 310 308 304 291 282 273 262 257 244 248 248 250 242 228 222 221 227 236 226 220 210 210 238 243 233 229